Location: Bottom School (historical)
(37.9078°N, 89.3593°W)
Time: 19:42:33
(UTC+00:00)

SL-4 R/B - Pass Details

Date: 30 June 2022
Orbit: 425 x 653 km, 51.6° (Epoch: 16 August)

Event Time Altitude Azimuth Distance (km) Brightness Sun altitude
Exits shadow 07:12:41 32° 39° (NE) 826 3.4 -26.7°
Drops below altitude 10° 07:14:54 10° 47° (NE) 1,677 5.3 -26.5°
Sets 07:17:10 0° 49° (NE) 2,604 6.4 -26.4°
